Weather History for RPLC - February, 2013

Change the Weather History Date:

Saturday, February 2, 2013

  Actual Average (RPLB) Record (RPLB)
Temperature  
Mean Temperature 80 °F -  
Max Temperature 86 °F 86 °F 91 °F (2013)
Min Temperature 73 °F 71 °F 68 °F (2002)
Cooling Degree Days 14    
Growing Degree Days 30 (Base 50)    
Moisture  
Dew Point 69 °F    
Average Humidity 72    
Maximum Humidity 88    
Minimum Humidity 58    
Precipitation  
Precipitation 0.00 in - - ()
Sea Level Pressure  
Sea Level Pressure 30.03 in    
Wind  
Wind Speed 6 mph ()    
Max Wind Speed 15 mph    
Max Gust Speed 24 mph    
Visibility 6.2 miles    
Events      
Averages and records for this station are not official NWS values.
T = Trace of Precipitation, MM = Missing Value Source: Averaged Metar Reports

Daily Weather History Graph

Daily Weather History Graph

Search for Another Location

Airport or City:

Trip Planner

Search our weather history database for the weather conditions in past years. The results will help you decide how hot, cold, wet, or windy it might be!

Date:

Astronomy

Feb. 02, 2013 Rise Set
Actual Time 6:26 AM PHT 5:56 PM PHT
Civil Twilight 6:04 AM PHT 6:18 PM PHT
Nautical Twilight 5:38 AM PHT 6:44 PM PHT
Astronomical Twilight 5:12 AM PHT 7:10 PM PHT
Moon 11:18 PM PHT (2/2) 10:21 AM PHT (2/2)
Length of Visible Light 12h 14m
Length of Day
11h 29m
Waning Gibbous, 66% of the Moon is Illuminated
Feb 2
Waning Gibbous
Feb 3
Last Quarter
Feb 10
New
Feb 18
First Quarter
Feb 26
Full

Hourly Weather History & Observations

Time (PHT) Temp. Heat Index Dew Point Humidity Pressure Visibility Wind Dir Wind Speed Gust Speed Precip Events Conditions
1:00 AM 75.2 °F - 68.0 °F 78% 30.04 in 6.2 mi NW 4.6 mph - N/A   Mostly Cloudy
2:00 AM 75.2 °F - 68.0 °F 78% 30.01 in 6.2 mi WNW 4.6 mph - N/A   Mostly Cloudy
3:00 AM 75.2 °F - 68.0 °F 78% 30.01 in 6.2 mi West 5.8 mph - N/A   Mostly Cloudy
4:00 AM 75.2 °F - 68.0 °F 78% 30.01 in 6.2 mi WNW 4.6 mph - N/A   Mostly Cloudy
5:00 AM 73.4 °F - 68.0 °F 83% 30.01 in 6.2 mi WNW 5.8 mph - N/A   Mostly Cloudy
6:00 AM 73.4 °F - 69.8 °F 88% 30.04 in 6.2 mi West 5.8 mph - N/A   Mostly Cloudy
7:00 AM 73.4 °F - 68.0 °F 83% 30.04 in 6.2 mi WNW 4.6 mph - N/A   Mostly Cloudy
8:00 AM 78.8 °F - 69.8 °F 74% 30.04 in 6.2 mi NW 5.8 mph - N/A   Mostly Cloudy
9:00 AM 82.4 °F 86.3 °F 69.8 °F 66% 30.06 in 6.2 mi North 9.2 mph - N/A   Mostly Cloudy
10:00 AM 84.2 °F 89.6 °F 71.6 °F 66% 30.06 in 6.2 mi ENE 9.2 mph - N/A   Mostly Cloudy
11:00 AM 86.0 °F 90.4 °F 69.8 °F 58% 30.06 in 6.2 mi ENE 8.1 mph - N/A   Mostly Cloudy
12:00 PM 86.0 °F 90.4 °F 69.8 °F 58% 30.04 in 6.2 mi ENE 13.8 mph - N/A   Mostly Cloudy
1:00 PM 84.2 °F 89.6 °F 71.6 °F 66% 30.01 in 6.2 mi ENE 11.5 mph - N/A   Mostly Cloudy
2:00 PM 82.4 °F 87.2 °F 71.6 °F 70% 29.98 in 6.2 mi ENE 12.7 mph 24.2 mph N/A   Overcast
3:00 PM 86.0 °F 90.4 °F 69.8 °F 58% 29.98 in 6.2 mi ENE 11.5 mph - N/A   Mostly Cloudy
4:00 PM 82.4 °F 86.3 °F 69.8 °F 66% 30.01 in 6.2 mi ENE 15.0 mph - N/A   Overcast
5:00 PM 82.4 °F 86.3 °F 69.8 °F 66% 30.01 in 6.2 mi ENE 9.2 mph - N/A   Mostly Cloudy
6:00 PM 80.6 °F 83.9 °F 69.8 °F 70% 30.04 in 6.2 mi ENE 9.2 mph - N/A   Mostly Cloudy
7:00 PM 77.0 °F - 68.0 °F 74% 30.04 in 6.2 mi NNE 6.9 mph - N/A   Mostly Cloudy
8:00 PM 77.0 °F - 68.0 °F 74% 30.06 in 6.2 mi Variable 3.5 mph - N/A   Mostly Cloudy
9:00 PM 75.2 °F - 66.2 °F 73% 30.06 in 6.2 mi Variable 1.2 mph - N/A   Mostly Cloudy
10:00 PM 73.4 °F - 66.2 °F 78% 30.06 in 6.2 mi WNW 5.8 mph - N/A   Mostly Cloudy
11:00 PM 75.2 °F - 66.2 °F 73% 30.06 in 6.2 mi NW 5.8 mph - N/A   Mostly Cloudy